Probability
0 0 1 3 3 3 3 3 4 4 2 1 0 0 0 0 0 0 0 0 0 0 0 0 0 0 0 1 0 0 0 1 2 2 1 0 0 0 0 0 0 0 0
0 0 1 2 3 3 3 3 4 4 3 2 1 0 0 0 0 0 0 0 0 0 0 0 0 0 1 1 1 0 0 0 1 1 0 0 0 0 0 0 0 0 0
0 0 1 1 2 3 3 3 3 4 3 3 1 0 0 0 0 0 0 0 0 0 0 0 0 1 2 2 1 0 0 0 0 0 0 0 0 0 0 0 0 0 0
0 0 0 0 1 3 3 3 3 3 3 3 2 1 1 0 0 0 0 0 0 0 0 0 1 2 2 1 0 0 0 0 0 0 0 0 0 0 0 0 0 0 0
0 0 0 0 1 2 3 3 3 3 3 3 3 2 2 1 0 0 0 0 0 0 0 0 1 2 2 1 0 0 0 0 0 0 0 0 0 0 0 0 0 0 0
0 0 1 2 3 3 3 3 3 3 3 3 2 3 2 1 0 0 0 0 0 0 0 0 1 2 1 0 0 0 0 0 0 0 0 0 0 0 0 0 0 0 0
0 0 1 2 4 3 3 3 3 3 2 2 2 2 1 1 0 0 0 0 0 0 0 0 1 1 1 0 0 0 0 0 0 0 0 0 0 0 0 0 0 0 0
0 0 0 1 2 2 3 3 2 1 1 1 1 1 0 0 0 0 0 0 0 0 0 0 0 0 0 0 0 0 0 0 0 0 0 0 0 0 0 0 0 0 0
0 1 1 1 1 1 1 1 1 0 0 0 0 0 0 0 0 0 0 0 0 0 0 0 0 0 0 0 0 0 0 0 0 0 0 0 0 0 0 0 0 0 0
1 2 2 3 2 1 0 0 0 0 0 0 0 0 0 0 0 0 0 0 0 0 0 0 0 0 0 0 0 0 0 0 0 0 0 0 0 0 0 0 0 0 0
3 3 3 3 3 1 0 0 0 0 0 0 0 0 0 0 0 0 0 0 0 0 0 0 0 0 0 0 0 0 0 0 0 0 0 0 0 0 0 0 0 0 0
4 4 3 3 3 2 1 0 0 0 0 0 0 0 0 0 0 0 0 0 0 0 0 0 0 0 0 0 0 0 0 0 0 0 0 0 0 0 0 0 0 0 0
3 3 3 3 3 3 2 1 0 0 0 0 0 0 0 0 0 0 0 0 0 0 0 0 0 0 0 0 0 0 0 0 0 0 0 0 0 0 0 0 0 0 0
1 2 2 3 3 3 3 2 1 0 0 0 0 0 1 1 0 0 0 0 0 0 0 0 0 0 0 0 0 0 0 0 0 0 0 0 0 0 0 0 0 0 0
0 0 1 1 2 3 3 3 1 0 0 0 0 0 1 1 0 0 0 0 0 0 0 0 0 0 0 0 0 0 0 0 0 0 0 0 0 0 0 0 0 0 0
0 0 0 0 1 2 3 3 2 1 1 0 0 0 1 1 0 0 0 0 0 0 0 0 0 0 0 0 0 0 0 0 0 0 0 0 0 0 0 0 0 0 0
0 0 0 0 0 1 2 3 3 3 2 1 0 0 0 0 0 0 0 0 0 0 0 0 0 0 0 0 0 0 0 0 0 0 0 0 0 0 0 0 0 0 0
0 0 0 0 0 0 1 1 2 3 3 2 1 0 0 0 0 0 0 0 0 0 1 0 0 0 0 0 0 0 0 0 0 0 0 0 0 0 0 0 0 0 0
0 0 0 0 0 0 0 0 1 2 3 3 2 1 0 0 0 0 0 0 0 0 0 0 0 0 0 0 0 0 0 0 0 0 0 0 0 0 0 0 0 0 0
0 0 0 0 0 0 0 0 0 1 2 3 3 1 0 0 0 0 0 0 0 0 0 0 0 0 0 0 0 0 0 0 0 0 0 0 0 0 0 0 0 0 0
0 0 0 0 0 0 0 0 0 0 1 2 2 2 1 1 0 0 0 0 0 1 0 0 0 0 0 0 0 0 0 0 0 0 0 0 0 0 0 0 0 0 0
0 0 0 0 0 0 0 0 0 0 0 1 1 2 2 2 1 1 0 0 0 0 0 0 0 0 0 0 0 0 0 0 0 0 0 0 0 0 0 0 0 0 0
0 0 0 0 0 0 0 0 0 0 0 0 0 1 2 2 2 2 1 0 0 0 0 0 0 0 0 0 0 0 0 0 0 0 0 0 0 0 0 0 0 0 0
0 0 0 0 0 0 0 0 0 0 0 0 0 0 1 1 1 1 1 0 0 0 0 0 0 0 0 0 0 0 0 0 0 0 0 0 0 0 0 0 0 0 0
0 0 0 0 0 0 0 0 0 0 0 0 0 0 0 0 0 0 0 0 0 0 0 0 0 0 0 0 0 0 0 0 0 0 0 0 0 0 0 0 0 0 0
0 0 0 0 0 0 0 0 0 0 0 0 0 0 0 0 0 0 0 0 0 0 0 0 0 0 0 0 0 0 0 0 0 0 0 0 0 0 0 0 0 0 0
Wind_Speed
5 6 10 10 11 11 11 11 10 10 10 10 10 10 10 11 10 10 10 10 10 10 10 10 10 10 10 10 10 10 10 10 10 10 10 11 11 12 12 12 10 7 12
8 8 10 10 11 11 11 11 10 9 9 10 10 10 10 10 10 10 10 10 10 10 10 10 10 10 10 10 10 10 10 10 10 10 10 9 11 12 12 11 10 7 11
9 8 9 10 11 11 11 10 10 10 9 9 9 10 10 10 10 10 9 9 9 9 9 10 10 9 9 9 9 9 9 8 9 9 9 5 6 10 11 11 10 10 10
9 7 8 10 11 11 11 10 10 10 9 9 9 9 9 10 10 10 9 9 9 9 9 9 9 9 9 8 8 8 8 8 8 7 5 4 4 9 10 10 10 10 10
7 7 7 10 11 11 11 10 10 9 10 9 9 9 9 10 10 9 9 9 9 9 9 8 8 8 8 8 8 7 8 8 8 6 4 3 3 8 9 10 10 9 9
6 6 7 10 11 11 11 10 10 10 10 10 9 9 9 10 9 9 9 9 9 8 8 8 8 8 8 7 7 7 8 8 6 4 3 3 2 7 9 9 9 9 9
6 5 7 9 10 10 11 11 10 10 10 9 9 9 9 9 9 8 8 8 8 8 8 8 8 8 7 7 7 7 7 7 4 3 3 2 3 8 8 8 8 8 8
7 6 6 8 8 9 10 10 10 10 9 9 9 9 8 9 8 8 8 8 8 8 8 8 7 7 7 7 7 7 7 5 4 3 2 2 4 7 8 8 8 7 7
6 5 4 5 6 7 7 8 9 9 9 9 8 8 7 7 8 8 7 8 8 8 8 7 7 6 6 6 6 6 6 5 3 2 2 1 4 6 7 7 7 6 6
5 5 4 4 4 4 4 6 7 8 8 8 8 8 7 7 6 7 6 7 8 8 8 7 6 6 5 6 6 5 5 4 2 1 1 1 3 5 6 6 6 6 6
4 4 4 4 4 4 4 5 6 7 7 7 6 7 6 3 3 4 5 6 6 7 6 6 5 5 4 4 4 4 4 1 1 1 0 1 3 4 4 5 5 5 5
4 4 3 4 4 4 4 3 3 3 4 3 3 4 3 3 2 3 5 5 5 5 5 5 4 4 3 2 2 3 1 1 1 0 0 1 3 3 3 4 4 4 4
5 4 4 4 4 4 3 3 2 2 2 3 3 3 3 3 2 2 2 2 3 3 2 3 2 1 1 1 1 1 1 1 0 0 0 1 2 2 2 3 3 3 3
3 3 3 4 4 4 3 3 3 2 2 2 3 4 3 2 2 2 2 2 2 1 2 1 1 1 1 1 1 1 0 0 0 0 0 0 1 2 2 2 3 3 3
2 2 3 3 4 4 4 3 3 3 3 3 3 3 4 4 3 3 2 2 2 2 2 2 1 1 1 0 1 1 1 1 1 0 0 0 1 2 2 2 2 2 3
3 2 2 3 4 4 4 3 3 3 3 3 3 3 4 4 4 3 3 3 2 2 2 2 2 1 1 1 1 1 1 1 1 1 0 0 1 2 3 3 3 3 3
3 3 2 3 3 4 4 4 3 3 3 3 3 3 3 4 4 4 3 3 2 2 2 2 1 1 1 0 0 0 1 1 1 1 1 1 0 1 2 4 4 3 3
2 3 3 2 2 3 3 3 3 3 3 3 3 3 3 3 4 4 3 3 3 2 2 2 2 1 1 1 0 1 1 0 1 1 1 0 0 1 1 2 3 3 3
2 3 3 2 3 2 2 2 2 3 3 3 2 2 3 3 4 3 3 2 3 2 2 2 2 2 1 1 1 0 1 1 1 1 1 1 1 0 0 0 1 1 2
1 2 2 2 2 2 1 2 1 2 2 2 2 3 3 3 3 3 3 2 3 2 2 2 2 2 1 1 0 1 1 1 1 1 1 1 1 1 1 0 0 1 1
1 1 1 2 2 2 2 2 2 2 2 2 2 3 3 3 3 3 3 3 3 3 3 3 2 2 1 1 1 1 2 1 1 1 1 1 1 1 0 1 1 0 1
1 0 1 2 3 3 2 2 2 2 1 2 1 2 3 3 3 3 4 3 3 3 3 3 2 2 1 2 2 1 1 2 2 1 1 1 1 0 1 0 0 0 0
0 0 1 1 2 2 2 2 2 2 1 1 1 2 2 3 4 4 4 4 3 4 4 4 4 3 3 2 2 3 2 3 2 2 2 1 1 0 1 0 0 0 0
1 0 0 1 1 2 3 3 3 3 2 2 1 1 1 2 3 3 4 4 4 3 3 4 4 3 4 3 1 1 1 2 2 1 2 1 1 1 1 1 0 0 1
1 1 1 1 1 2 2 3 3 2 1 0 0 0 1 1 2 2 3 3 3 3 3 4 4 3 3 3 2 1 1 0 1 2 2 2 2 1 1 1 1 1 1
3 3 2 2 2 1 1 2 2 2 2 1 1 1 1 1 1 1 2 3 3 3 3 4 4 4 4 3 3 2 2 2 2 2 3 2 2 2 2 1 1 1 1
Wind_Direction
169 171 166 156 149 141 135 132 127 123 120 117 112 110 109 108 106 105 106 102 99 99 99 97 95 93 90 87 85 84 82 79 77 77 79 81 83 82 79 75 71 66 76
157 165 161 156 150 144 138 134 132 129 126 121 118 117 115 113 111 109 107 103 100 100 99 98 98 95 92 90 89 86 82 78 77 74 73 76 82 84 82 78 77 78 79
147 158 155 154 150 145 141 139 136 134 130 126 122 120 120 116 113 111 107 106 104 103 103 101 100 97 95 95 92 87 84 80 81 75 69 59 78 85 83 81 80 82 82
148 153 153 152 149 147 142 140 139 137 135 132 128 124 123 119 115 111 109 107 105 103 103 104 100 96 96 96 93 87 85 86 85 75 59 51 67 88 87 84 82 79 80
141 146 150 151 149 148 144 142 141 140 138 135 131 127 123 119 116 114 111 108 105 102 102 105 102 98 94 90 88 87 89 87 81 69 55 52 58 89 89 86 83 80 79
132 140 147 148 148 146 145 146 145 141 139 135 131 126 122 119 117 116 115 111 107 103 100 101 99 96 92 88 82 87 93 87 74 62 54 55 67 95 95 92 89 85 82
130 134 143 145 145 145 145 144 143 141 140 136 133 128 124 121 118 120 121 116 113 110 105 102 100 94 88 83 77 79 88 88 82 62 46 45 82 98 100 99 97 92 86
131 132 139 139 139 143 145 146 144 142 140 138 135 131 127 126 125 126 125 122 119 115 111 108 104 99 90 81 79 78 73 81 84 74 53 48 101 103 104 104 102 95 90
123 126 133 138 138 136 137 142 142 140 136 134 132 128 124 124 127 124 123 125 122 120 116 112 106 100 93 84 81 77 67 71 71 73 65 58 102 109 110 107 105 101 96
120 123 128 128 127 128 133 134 135 136 133 132 129 123 122 124 124 124 120 125 125 123 122 119 113 103 95 88 83 71 57 59 61 60 48 92 111 115 116 113 109 104 100
123 126 128 129 127 129 131 133 131 134 135 134 132 130 124 114 116 122 123 129 130 130 131 126 118 105 89 81 77 66 49 57 59 39 30 120 130 125 122 117 115 113 107
161 158 144 140 138 136 138 128 130 133 131 129 130 129 120 119 127 126 128 131 128 129 131 124 111 94 77 65 61 54 52 51 57 349 82 125 133 133 130 122 123 125 123
174 167 161 156 151 146 140 139 136 138 136 137 140 135 126 120 120 116 119 122 119 117 109 101 81 65 81 92 80 63 61 50 49 348 353 103 130 137 148 151 151 150 145
159 174 174 164 158 157 151 152 150 152 153 158 161 150 141 138 138 142 142 145 142 139 136 127 127 116 117 119 124 113 81 108 105 42 334 33 157 174 190 183 183 175 175
175 183 175 167 166 163 157 162 162 167 167 167 167 164 155 155 159 160 158 155 158 154 155 156 155 154 148 154 162 145 138 164 152 119 341 12 200 197 210 212 212 198 198
192 198 194 177 172 165 166 172 170 170 166 161 168 171 165 161 162 162 162 164 167 170 169 166 170 167 184 176 178 167 179 196 164 171 218 276 231 209 219 229 228 223 206
206 199 197 188 171 171 174 178 170 170 163 164 170 172 166 161 165 167 167 172 179 173 163 154 146 140 151 145 194 211 198 207 195 193 223 257 279 247 232 238 240 233 225
191 194 202 188 179 184 176 178 170 165 160 164 169 172 169 168 167 169 172 181 178 167 163 162 162 156 169 165 216 299 299 255 225 221 221 259 292 306 268 243 241 241 241
186 190 196 198 182 185 182 168 158 158 161 164 165 171 176 173 171 169 175 180 171 166 172 175 170 164 176 182 199 271 295 265 242 214 213 230 231 225 236 263 274 258 250
157 170 191 202 179 162 156 129 129 140 157 163 170 180 175 178 175 167 170 175 166 168 175 173 172 162 166 174 147 339 303 286 271 244 235 239 234 219 201 201 254 298 279
83 107 169 175 164 150 148 156 167 188 179 181 186 184 177 177 176 171 172 175 175 178 187 178 168 163 165 135 90 355 332 319 297 267 245 228 246 243 214 206 217 228 293
142 155 158 175 170 173 174 170 173 170 181 182 176 183 182 181 178 182 176 183 186 181 179 175 164 162 180 161 142 125 324 326 320 302 274 225 244 280 264 263 253 220 273
92 204 202 190 170 167 144 114 95 86 73 94 200 205 200 188 184 184 183 182 188 185 191 189 181 174 187 202 176 162 173 224 292 310 297 278 267 265 275 307 298 290 283
282 301 10 145 138 138 137 138 145 163 192 227 220 227 206 189 190 189 184 186 189 192 195 196 192 191 178 194 215 223 198 164 173 285 310 318 311 275 267 267 271 292 302
25 27 39 68 91 116 138 155 162 171 197 186 146 164 233 200 189 190 186 188 191 198 200 197 192 192 193 191 186 180 181 173 170 187 255 293 317 287 262 247 244 256 279
30 31 40 65 57 70 115 142 163 176 167 152 184 195 224 250 225 211 192 192 196 200 204 204 200 193 197 193 185 179 173 178 191 189 221 248 268 277 272 244 230 239 256